Погода в Каламате

Греция     37°02′25″N   22°06′42″E
темп.,
°C
ветер,
м/с
пор.,
м/с
влажн.,
%
обл.,
%
осадки,
мм/ч
давл.,
гПа
погр.,
м
29 ноября, пн
пн2923:00+19ююв8128197 0.0 1005420
02:00+20ю5980100 0.1 1003280
05:00+17з5983100 0.3 1004627
08:00+17зюз61174100 0.9 10061048
11:00+17зюз101474100 0.9 10081341
14:00+16з111567100 1.8 10081835
17:00+16зюз10155537 0.6 10091962
20:00+16зюз9135470 0.8 10101711
30 ноября, вт
вт3023:00+15юз11166448 0.6 10101625
02:00+14зюз131980100 2.6 10071788
05:00+14з12175713 1.4 10081715
08:00+14з10145966 2.6 10101427
11:00+14зсз10146530 1.8 10131745
14:00+13зсз10156218 3.5 10141768
17:00+12сз8136598 0.4 10161274
20:00+12ссз6126168 0.6 10181395
1 декабря, ср
ср123:00+12сз713534 0.0 10181461
02:00+11ссз6115743 0.0 10191184
05:00+10с696529 0.0 1020649
08:00+10ссз69712 0.0 1020462
11:00+13ссз79590 0.0 10201117
14:00+14сз67560 0.0 10191152
17:00+12ссз46670 0.0 1019542
20:00+11ссз45730 0.0 1019306
2 декабря, чт
чт223:00+10ссз45731 0.0 1019249
02:00+11с347131 0.0 1018246
05:00+12с226562 0.0 1017227
08:00+12ссз226713 0.0 1017167
11:00+15сз01619 0.0 1017549
14:00+16вюв226362 0.0 1015489
17:00+15юв2374100 0.1 1015348
20:00+15ю13716 1.1 1015212
3 декабря, пт
пт323:00+15ю357434 0.3 1015476
02:00+15ю47772 1.3 1014529
05:00+15ю37785 2.2 1013587
08:00+16ю6107914 6.1 1012761
11:00+17ю91277100 4.4 10121172
14:00+17ю101477100 9.5 10091354
17:00+17ю101483100 2.9 10071096
20:00+15ююз4875100 7.3 1008679